Location: Balsareny
(41.8670°N, 1.8830°E)
Time: 21:20:56
(UTC+01:00)

N. Korean satellite - Pass Details

Date: 01 December 2021
Orbit: 447 x 490 km, 97.3° (Epoch: 28 January)

Event Time Altitude Azimuth Distance (km) Brightness Sun altitude
Rises 07:17:15 0° 349° (N) 2,469 9.8 -8.1°
Reaches altitude 10° 07:20:22 10° 318° (NW) 1,584 8.6 -7.6°
Maximum altitude 07:21:42 12° 294° (WNW) 1,463 8.3 -7.3°
Drops below altitude 10° 07:23:01 10° 271° (W) 1,575 8.6 -7.1°
Sets 07:26:06 0° 239° (WSW) 2,438 9.8 -6.6°
